Tracking 19644 objects as of 26-Apr-2019
HD Live streaming from Space Station
objects crossing your sky now

NOAA 8

Track NOAA 8 now!
10-day predictions
NOAA 8 is classified as:


NORAD ID: 13923
Int'l Code: 1983-022A
Perigee: 792.7 km
Apogee: 813.9 km
Inclination: 98.6 °
Period: 100.8 minutes
Semi major axis: 7174 km
RCS: 5.054 m2 (large)
Launch date: March 28, 1983
Source: United States (US)
Launch site: AIR FORCE WESTERN TEST RANGE (AFWTR)
aabbcc
Your satellite tracking list
Your tracking list is empty




NASA's NSSDC Master Catalog

Two Line Element Set (TLE):
1 13923U 83022A   19115.54364044  .00000002  00000-0  18074-4 0  9996
2 13923  98.5792 101.7503 0014779 338.8951  21.1619 14.28670909878618
Source of the keplerian elements: AFSPC